sat.trackr.live / text

‹ back to catalog

UNKNOWN

NORAD 82500

UNKNOWN UNKNOWN UNKNOWN

§ Identity

Operator
Country
Launch date
Launch site
Launch vehicle
Mass (kg)
RCS (m²)

External: N2YO · Heavens-Above

§ Orbital elements

Epoch: 2026-05-22T09:34:32.546784Z

Period
101.43 min
Inclination
70.9671°
Eccentricity
0.0119306
Mean motion
14.19671036 rev/d
Perigee alt
740.5 km
Apogee alt
912.4 km
Semi-major
7,204.6 km
B*
9.5212e-4
RAAN
23.4571°
Arg perigee
229.4191°
Mean anomaly
129.6505°
Rev number
64,174

§ Raw data

UNKNOWN1 82500U          26142.39898781  .00002114  00000+0  95212-3 0  99922 82500  70.9671  23.4571 0119306 229.4191 129.6505 14.19671036641745

JSON: /api/v1/satellites/82500 · /tle

For live sub-satellite position, see the globe view (requires WebGL).

§ Visibility from observer

Set your observer location to see the next 7 days of passes ≥ 10°. The values pass through the URL so the page stays shareable.

No JS? Fill the form by hand. The geolocation button needs JavaScript.